Weather History for Portsmouth, NH

Change the Weather History Date:

Tuesday, November 19, 2013

  Actual Average Record
Temperature  
Mean Temperature 38 °F -  
Max Temperature 46 °F 45 °F 70 °F (1991)
Min Temperature 30 °F 30 °F 17 °F (2008)
Degree Days  
Heating Degree Days 26    
Moisture  
Dew Point 17 °F    
Average Humidity 44    
Maximum Humidity 56    
Minimum Humidity 34    
Precipitation  
Precipitation 0.00 in - - ()
Sea Level Pressure  
Sea Level Pressure 29.94 in    
Wind  
Wind Speed 16 mph (WNW)    
Max Wind Speed 24 mph    
Max Gust Speed 34 mph    
Visibility 10 miles    
Events      
Averages and records for this station are not official NWS values.
T = Trace of Precipitation, MM = Missing Value Source: NWS Daily Summary

Daily Weather History Graph

Daily Weather History Graph

Search for Another Location

Airport:

Trip Planner

Search our weather history database for the weather conditions in past years. The results will help you decide how hot, cold, wet, or windy it might be!

Date:

Astronomy

Nov. 19, 2013 Rise Set
Actual Time 6:41 AM EST 4:15 PM EST
Civil Twilight 6:10 AM EST 4:46 PM EST
Nautical Twilight 5:35 AM EST 5:21 PM EST
Astronomical Twilight 5:01 AM EST 5:55 PM EST
Moon 6:04 PM EST (11/19) 8:18 AM EST (11/19)
Length of Visible Light 10h 36m
Length of Day
9h 34m
Waning Gibbous, 96% of the Moon is Illuminated
Nov 19
Waning Gibbous
Nov 25
Last Quarter
Dec 2
New
Dec 9
First Quarter
Dec 17
Full

Hourly Weather History & Observations

Time (EST) Temp. Windchill Dew Point Humidity Pressure Visibility Wind Dir Wind Speed Gust Speed Precip Events Conditions
12:58 AM 46.2 °F 40.5 °F 29.3 °F 52% 29.63 in 10.0 mi West 12.7 mph - N/A   Clear
1:58 AM 45.7 °F 38.8 °F 27.1 °F 48% 29.64 in 10.0 mi West 16.1 mph 23.0 mph N/A   Clear
2:58 AM 44.2 °F 37.3 °F 23.4 °F 44% 29.65 in 10.0 mi West 15.0 mph - N/A   Clear
3:58 AM 42.6 °F 35.2 °F 22.8 °F 46% 29.68 in 10.0 mi West 15.0 mph 21.9 mph N/A   Partly Cloudy
4:58 AM 41.7 °F 36.1 °F 22.5 °F 46% 29.70 in 10.0 mi West 9.2 mph - N/A   Scattered Clouds
5:58 AM 40.5 °F 35.8 °F 24.4 °F 53% 29.74 in 10.0 mi WNW 6.9 mph - N/A   Scattered Clouds
6:58 AM 39.6 °F 31.7 °F 22.1 °F 50% 29.79 in 10.0 mi NW 13.8 mph 23.0 mph N/A   Mostly Cloudy
7:58 AM 37.8 °F 28.3 °F 23.4 °F 56% 29.84 in 10.0 mi WNW 17.3 mph 25.3 mph N/A   Mostly Cloudy
8:58 AM 36.5 °F 26.7 °F 15.4 °F 42% 29.88 in 10.0 mi NW 17.3 mph 33.4 mph N/A   Mostly Cloudy
9:55 AM 37.8 °F 26.8 °F 13.6 °F 37% 29.91 in 10.0 mi NW 23.0 mph 31.1 mph N/A   Mostly Cloudy
10:55 AM 40.1 °F 30.2 °F 15.1 °F 36% 29.91 in 10.0 mi NW 21.9 mph 25.3 mph N/A   Mostly Cloudy
11:20 AM 39.2 °F 29.8 °F 14.0 °F 36% 29.91 in 10.0 mi West 18.4 mph 27.6 mph N/A   Mostly Cloudy
11:55 AM 39.6 °F 29.5 °F 14.5 °F 36% 29.92 in 10.0 mi WNW 21.9 mph 29.9 mph N/A   Scattered Clouds
12:58 PM 39.9 °F 30.5 °F 13.3 °F 34% 29.94 in 10.0 mi WNW 19.6 mph 34.5 mph N/A   Partly Cloudy
1:58 PM 40.3 °F 29.9 °F 13.6 °F 34% 29.96 in 10.0 mi NW 24.2 mph 32.2 mph N/A   Partly Cloudy
2:58 PM 37.9 °F 27.1 °F 13.5 °F 37% 30.01 in 10.0 mi NW 23.0 mph 33.4 mph N/A   Partly Cloudy
3:58 PM 35.8 °F 26.5 °F 14.7 °F 42% 30.04 in 10.0 mi NW 15.0 mph 25.3 mph N/A   Partly Cloudy
4:58 PM 34.3 °F 22.9 °F 14.0 °F 43% 30.09 in 10.0 mi NW 20.7 mph 27.6 mph N/A   Partly Cloudy
5:58 PM 33.6 °F 22.2 °F 13.3 °F 43% 30.12 in 10.0 mi NW 19.6 mph 27.6 mph N/A   Clear
6:58 PM 32.9 °F 24.7 °F 13.5 °F 45% 30.16 in 10.0 mi WNW 10.4 mph 21.9 mph N/A   Clear
7:58 PM 32.0 °F 21.6 °F 14.0 °F 48% 30.18 in 10.0 mi West 15.0 mph - N/A   Clear
8:58 PM 31.8 °F 21.4 °F 14.4 °F 49% 30.21 in 10.0 mi WNW 15.0 mph 23.0 mph N/A   Clear
9:58 PM 32.0 °F 21.2 °F 13.1 °F 46% 30.20 in 10.0 mi WNW 16.1 mph 27.6 mph N/A   Clear
10:58 PM 31.5 °F 21.4 °F 11.1 °F 43% 30.22 in 10.0 mi WNW 13.8 mph 23.0 mph N/A   Clear
11:58 PM 30.7 °F 20.0 °F 11.8 °F 46% 30.26 in 10.0 mi WNW 15.0 mph 21.9 mph N/A   Clear